This is the latest recevied weather packets stored in our database for station/object KI4BSX. If no packets are shown the sender has not sent any weather packets the latest 10 day(s).
| Time | Temp. | Humidity | Pressure | Rain* | Wind** | Luminosity | Snow |
|---|---|---|---|---|---|---|---|
| 1777668881 | 18.89° C | 61% | 1015 hPa | 0 mm | - | - | - |
| 1777668578 | 18.89° C | 61% | 1015.3 hPa | 0 mm | - | - | - |
| 1777668274 | 19.44° C | 60% | 1015.2 hPa | 0 mm | - | - | - |
| 1777667970 | 19.44° C | 60% | 1015.2 hPa | 0 mm | - | - | - |
| 1777667667 | 18.89° C | 60% | 1015.2 hPa | 0 mm | - | - | - |
| 1777667365 | 18.89° C | 59% | 1015.2 hPa | 0 mm | - | - | - |
| 1777667062 | 19.44° C | 60% | 1015.3 hPa | 0 mm | - | - | - |
| 1777666758 | 18.89° C | 60% | 1015 hPa | 0 mm | - | - | - |
| 1777666455 | 18.89° C | 60% | 1015.3 hPa | 0 mm | - | - | - |
| 1777666152 | 18.89° C | 59% | 1015.6 hPa | 0 mm | - | - | - |
| 1777665849 | 19.44° C | 59% | 1015.5 hPa | 0 mm | - | - | - |
| 1777665547 | 20° C | 59% | 1015.6 hPa | 0 mm | - | - | - |
| 1777665243 | 19.44° C | 60% | 1015.7 hPa | 0 mm | - | - | - |
| 1777664939 | 20° C | 60% | 1015.5 hPa | 0 mm | - | - | - |
| 1777664635 | 19.44° C | 61% | 1015.5 hPa | 0 mm | - | - | - |
| 1777664331 | 19.44° C | 60% | 1015.6 hPa | 0 mm | - | - | - |
| 1777664030 | 19.44° C | 60% | 1015.7 hPa | 0 mm | - | - | - |
| 1777663727 | 19.44° C | 60% | 1015.9 hPa | 0 mm | - | - | - |
| 1777663424 | 19.44° C | 60% | 1016 hPa | 0 mm | - | - | - |
| 1777663121 | 18.89° C | 60% | 1016.1 hPa | 0 mm | - | - | - |
| 1777662818 | 19.44° C | 61% | 1016.1 hPa | 0 mm | - | - | - |
| 1777662514 | 18.89° C | 62% | 1016.3 hPa | 0 mm | - | - | - |
| 1777662211 | 18.33° C | 61% | 1016.4 hPa | 0 mm | - | - | - |
| 1777661906 | 18.89° C | 60% | 1016.3 hPa | 0 mm | - | - | - |
| 1777661602 | 18.89° C | 61% | 1016.3 hPa | 0 mm | - | - | - |
* Rain latest hour (hover to see other rain measurements)
** Current wind speed in m/s (hover to see current wind gust speed)